User: anonymous   Login
Location: Arborea
(39.7744°N, 8.5819°E)
Time: 11:16:05
(UTC+00:00)
Language:

Okean-O - Orbit

View from above orbital plane
View from above orbital plane
View from above satellite
View from above satellite

Ground track
Ground track

The orbit data is extracted from the following two-line orbital elements,

1 25860U 99039A   22017.84404458  .00000296  00000-0  49667-4 0  9993
2 25860  98.1599  56.2509 0001470 112.5737 247.5628 14.76811771211022
Epoch (UTC): 17 January 2022 20:15:25
Eccentricity: 0.0001470
inclination: 98.1599°
perigee height: 638 km
apogee height: 640 km
right ascension of ascending node: 56.2509°
argument of perigee: 112.5737°
revolutions per day: 14.76811771
mean anomaly at epoch: 247.5628°
orbit number at epoch: 21102

The dashed part of the orbit path shows where the satellite is in the earth's shadow,  

DLR